Terminal Aerodrome Forecast
Issued by NWS

Home | Current Version | Previous Version | Text Only | Print | Product List | Glossary On
Versions: 1 2 3 4 5 6 7 8 9 10 11 12 13 14 15 16 17 18 19 20 21 22 23 24 25 26 27 28 29 30 31 32 33 34 35 36 37 38 39 40 41 42
000
FTUS42 KJAX 181200 AAA
TAFVQQ
TAF AMD
KVQQ 181233Z 1813/1912 00000KT P6SM FEW250
     FM181500 VRB03KT P6SM SCT040 SCT250
     FM181900 09006KT P6SM VCSH BKN040
     FM190200 00000KT P6SM SCT040 BKN250
     FM190800 00000KT 3SM BR FEW010 SCT250=

USA.gov is the U.S. government's official web portal to all federal, state and local government web resources and services.